Time,TemperatureF,DewpointF,PressureIn,WindDirection,WindDirectionDegrees,WindSpeedMPH,WindSpeedGustMPH,Humidity,HourlyPrecipIn,Conditions,Clouds,dailyrainin,SoftwareType,DateUTC
2013-08-27 00:01:00,66.7,63.4,29.97,WSW,248,0.0,0.0,89,0.00,CLR,,0.00,WeatherDisplay:10.37,2013-08-27 04:01:00,
2013-08-27 00:02:00,66.6,63.2,29.97,WSW,248,0.0,0.0,89,0.00,CLR,,0.00,WeatherDisplay:10.37,2013-08-27 04:02:00,
2013-08-27 00:07:00,66.6,63.2,29.97,South,180,0.0,0.0,89,0.00,CLR,,0.00,WeatherDisplay:10.37,2013-08-27 04:07:00,
2013-08-27 00:12:00,66.4,63.0,29.97,South,180,0.0,0.0,89,0.00,CLR,,0.00,WeatherDisplay:10.37,2013-08-27 04:12:00,
2013-08-27 00:17:00,66.4,63.0,29.97,South,180,0.0,0.0,89,0.00,CLR,,0.00,WeatherDisplay:10.37,2013-08-27 04:17:00,
2013-08-27 00:22:00,66.4,63.0,29.97,South,180,0.0,0.0,89,0.00,CLR,,0.00,WeatherDisplay:10.37,2013-08-27 04:22:00,
2013-08-27 00:27:00,66.4,63.0,29.97,South,180,0.0,0.0,89,0.00,CLR,,0.00,WeatherDisplay:10.37,2013-08-27 04:27:00,
2013-08-27 00:32:00,65.1,61.8,29.96,South,180,0.0,0.0,89,0.00,CLR,,0.00,WeatherDisplay:10.37,2013-08-27 04:32:00,
2013-08-27 00:37:00,65.1,61.8,29.96,South,180,0.0,0.0,89,0.00,CLR,,0.00,WeatherDisplay:10.37,2013-08-27 04:37:00,
2013-08-27 00:42:00,64.9,61.9,29.96,NW,315,0.0,0.0,90,0.00,CLR,,0.00,WeatherDisplay:10.37,2013-08-27 04:42:00,
2013-08-27 00:47:00,64.9,61.9,29.96,WNW,292,0.0,0.0,90,0.00,CLR,,0.00,WeatherDisplay:10.37,2013-08-27 04:47:00,
2013-08-27 00:52:00,64.9,61.9,29.96,NW,315,0.0,0.0,90,0.00,CLR,,0.00,WeatherDisplay:10.37,2013-08-27 04:52:00,
2013-08-27 00:57:00,64.9,61.9,29.95,NW,315,0.0,0.0,90,0.00,CLR,,0.00,WeatherDisplay:10.37,2013-08-27 04:57:00,
2013-08-27 01:02:00,64.9,61.9,29.95,NW,315,0.0,0.0,90,0.00,CLR,,0.00,WeatherDisplay:10.37,2013-08-27 05:02:00,
2013-08-27 01:07:00,64.9,61.9,29.95,NW,315,0.0,0.0,90,0.00,CLR,,0.00,WeatherDisplay:10.37,2013-08-27 05:07:00,
2013-08-27 01:12:00,64.9,61.9,29.95,NW,315,0.0,0.0,90,0.00,CLR,,0.00,WeatherDisplay:10.37,2013-08-27 05:12:00,
2013-08-27 01:18:00,64.6,61.6,29.95,NW,315,0.0,0.0,90,0.00,CLR,,0.00,WeatherDisplay:10.37,2013-08-27 05:18:00,
2013-08-27 01:23:00,64.6,61.6,29.95,NW,315,0.0,0.0,90,0.00,CLR,,0.00,WeatherDisplay:10.37,2013-08-27 05:23:00,
2013-08-27 01:28:00,64.4,61.4,29.95,NW,315,0.0,0.0,90,0.00,CLR,,0.00,WeatherDisplay:10.37,2013-08-27 05:28:00,
2013-08-27 01:33:00,64.4,61.4,29.94,NW,315,0.0,0.0,90,0.00,CLR,,0.00,WeatherDisplay:10.37,2013-08-27 05:33:00,
2013-08-27 01:38:00,64.4,61.4,29.94,NW,315,0.0,0.0,90,0.00,CLR,,0.00,WeatherDisplay:10.37,2013-08-27 05:38:00,
2013-08-27 01:43:00,64.4,61.4,29.94,NW,315,0.0,0.0,90,0.00,CLR,,0.00,WeatherDisplay:10.37,2013-08-27 05:43:00,
2013-08-27 01:48:00,64.8,62.1,29.95,WNW,292,0.0,0.0,91,0.00,CLR,,0.00,WeatherDisplay:10.37,2013-08-27 05:48:00,
2013-08-27 01:53:00,64.8,61.8,29.94,WNW,292,0.0,0.0,90,0.00,CLR,,0.00,WeatherDisplay:10.37,2013-08-27 05:53:00,
2013-08-27 01:58:00,64.9,61.9,29.95,WNW,292,0.0,0.0,90,0.00,CLR,,0.00,WeatherDisplay:10.37,2013-08-27 05:58:00,
2013-08-27 02:03:00,64.8,62.1,29.95,NW,315,0.0,0.0,91,0.00,CLR,,0.00,WeatherDisplay:10.37,2013-08-27 06:03:00,
2013-08-27 02:08:00,64.8,62.1,29.94,NW,315,0.0,0.0,91,0.00,CLR,,0.00,WeatherDisplay:10.37,2013-08-27 06:08:00,
2013-08-27 02:13:00,64.8,62.1,29.94,NW,315,0.0,0.0,91,0.00,CLR,,0.00,WeatherDisplay:10.37,2013-08-27 06:13:00,
2013-08-27 02:18:00,64.0,61.4,29.94,NW,315,0.0,0.0,91,0.00,CLR,,0.00,WeatherDisplay:10.37,2013-08-27 06:18:00,
2013-08-27 02:23:00,64.0,61.4,29.94,NW,315,0.0,0.0,91,0.00,CLR,,0.00,WeatherDisplay:10.37,2013-08-27 06:23:00,
2013-08-27 02:28:00,64.0,61.4,29.94,NW,315,0.0,0.0,91,0.00,CLR,,0.00,WeatherDisplay:10.37,2013-08-27 06:28:00,
2013-08-27 02:33:00,64.0,61.4,29.94,NNW,338,0.0,0.0,91,0.00,CLR,,0.00,WeatherDisplay:10.37,2013-08-27 06:33:00,
2013-08-27 02:38:00,64.0,61.4,29.94,NNE,22,0.0,0.0,91,0.00,CLR,,0.00,WeatherDisplay:10.37,2013-08-27 06:38:00,
2013-08-27 02:43:00,64.0,61.4,29.94,NNE,22,0.0,0.0,91,0.00,CLR,,0.00,WeatherDisplay:10.37,2013-08-27 06:43:00,
2013-08-27 02:48:00,64.0,61.4,29.94,NNE,22,0.0,0.0,91,0.00,CLR,,0.00,WeatherDisplay:10.37,2013-08-27 06:48:00,
2013-08-27 02:53:00,63.9,61.2,29.93,NNW,338,0.0,0.0,91,0.00,CLR,,0.00,WeatherDisplay:10.37,2013-08-27 06:53:00,
2013-08-27 02:58:00,63.7,61.0,29.93,North,0,0.0,0.0,91,0.00,CLR,,0.00,WeatherDisplay:10.37,2013-08-27 06:58:00,
2013-08-27 03:03:00,63.7,61.0,29.93,NNW,338,0.0,0.0,91,0.00,CLR,,0.00,WeatherDisplay:10.37,2013-08-27 07:03:00,
2013-08-27 03:08:00,63.5,60.8,29.93,NNW,338,0.0,0.0,91,0.00,CLR,,0.00,WeatherDisplay:10.37,2013-08-27 07:08:00,
2013-08-27 03:13:00,63.5,60.8,29.93,NNW,338,0.0,0.0,91,0.00,CLR,,0.00,WeatherDisplay:10.37,2013-08-27 07:13:00,
2013-08-27 03:18:00,63.7,61.0,29.93,NW,315,0.0,0.0,91,0.00,CLR,,0.00,WeatherDisplay:10.37,2013-08-27 07:18:00,
2013-08-27 03:23:00,63.5,60.8,29.93,NNW,338,0.0,0.0,91,0.00,CLR,,0.00,WeatherDisplay:10.37,2013-08-27 07:23:00,
2013-08-27 03:28:00,63.3,60.6,29.93,NNW,338,0.0,0.0,91,0.00,CLR,,0.00,WeatherDisplay:10.37,2013-08-27 07:28:00,
2013-08-27 03:33:00,63.3,60.6,29.93,NNW,338,0.0,0.0,91,0.00,CLR,,0.00,WeatherDisplay:10.37,2013-08-27 07:33:00,
2013-08-27 03:38:00,63.3,60.6,29.93,NNW,338,0.0,0.0,91,0.00,CLR,,0.00,WeatherDisplay:10.37,2013-08-27 07:38:00,
2013-08-27 03:43:00,63.3,60.6,29.93,NNW,338,0.0,0.0,91,0.00,CLR,,0.00,WeatherDisplay:10.37,2013-08-27 07:43:00,
2013-08-27 03:48:00,63.3,60.6,29.93,NNW,338,0.0,0.0,91,0.00,CLR,,0.00,WeatherDisplay:10.37,2013-08-27 07:48:00,
2013-08-27 03:53:00,63.3,60.6,29.93,North,0,0.0,0.0,91,0.00,CLR,,0.00,WeatherDisplay:10.37,2013-08-27 07:53:00,
2013-08-27 03:58:00,63.3,60.6,29.93,North,0,0.0,0.0,91,0.00,CLR,,0.00,WeatherDisplay:10.37,2013-08-27 07:58:00,
2013-08-27 04:03:00,63.3,60.6,29.93,North,0,0.0,0.0,91,0.00,CLR,,0.00,WeatherDisplay:10.37,2013-08-27 08:03:00,
2013-08-27 04:08:00,63.3,60.6,29.93,North,0,0.0,0.0,91,0.00,CLR,,0.00,WeatherDisplay:10.37,2013-08-27 08:08:00,
2013-08-27 04:13:00,63.1,60.5,29.93,North,0,0.0,0.0,91,0.00,CLR,,0.00,WeatherDisplay:10.37,2013-08-27 08:13:00,
2013-08-27 04:18:00,63.1,60.5,29.93,North,0,0.0,0.0,91,0.00,CLR,,0.00,WeatherDisplay:10.37,2013-08-27 08:18:00,
2013-08-27 04:23:00,63.1,60.5,29.93,North,0,0.0,0.0,91,0.00,CLR,,0.00,WeatherDisplay:10.37,2013-08-27 08:23:00,
2013-08-27 04:28:00,63.1,60.5,29.93,North,0,0.0,0.0,91,0.00,CLR,,0.00,WeatherDisplay:10.37,2013-08-27 08:28:00,
2013-08-27 04:33:00,63.1,60.5,29.93,North,0,0.0,0.0,91,0.00,CLR,,0.00,WeatherDisplay:10.37,2013-08-27 08:33:00,
2013-08-27 04:38:00,63.1,60.5,29.93,North,0,0.0,0.0,91,0.00,CLR,,0.00,WeatherDisplay:10.37,2013-08-27 08:38:00,
2013-08-27 04:43:00,63.1,60.5,29.92,North,0,0.0,0.0,91,0.00,CLR,,0.00,WeatherDisplay:10.37,2013-08-27 08:43:00,
2013-08-27 04:48:00,63.1,60.5,29.92,NW,315,0.0,0.0,91,0.00,CLR,,0.00,WeatherDisplay:10.37,2013-08-27 08:48:00,
2013-08-27 04:53:00,63.0,60.3,29.92,NNW,338,0.0,0.0,91,0.00,CLR,,0.00,WeatherDisplay:10.37,2013-08-27 08:53:00,
2013-08-27 04:58:00,63.0,60.3,29.92,North,0,0.0,0.0,91,0.00,CLR,,0.00,WeatherDisplay:10.37,2013-08-27 08:58:00,
2013-08-27 05:03:00,63.0,60.3,29.92,North,0,0.0,0.0,91,0.00,CLR,,0.00,WeatherDisplay:10.37,2013-08-27 09:03:00,
2013-08-27 05:08:00,62.8,60.1,29.92,NNW,338,0.0,0.0,91,0.00,CLR,,0.00,WeatherDisplay:10.37,2013-08-27 09:08:00,
2013-08-27 05:13:00,62.8,60.1,29.92,NNW,338,0.0,0.0,91,0.00,CLR,,0.00,WeatherDisplay:10.37,2013-08-27 09:13:00,
2013-08-27 05:18:00,62.8,60.1,29.92,NNW,338,0.0,0.0,91,0.00,CLR,,0.00,WeatherDisplay:10.37,2013-08-27 09:18:00,
2013-08-27 05:23:00,62.6,59.9,29.92,North,0,0.0,0.0,91,0.00,CLR,,0.00,WeatherDisplay:10.37,2013-08-27 09:23:00,
2013-08-27 05:28:00,62.6,59.9,29.92,North,0,0.0,0.0,91,0.00,CLR,,0.00,WeatherDisplay:10.37,2013-08-27 09:28:00,
2013-08-27 05:33:00,62.4,59.8,29.92,NNW,338,0.0,0.0,91,0.00,CLR,,0.00,WeatherDisplay:10.37,2013-08-27 09:33:00,
2013-08-27 05:38:00,62.2,59.6,29.92,NNW,338,0.0,0.0,91,0.00,CLR,,0.00,WeatherDisplay:10.37,2013-08-27 09:38:00,
2013-08-27 05:43:00,62.2,59.6,29.92,NNW,338,0.0,0.0,91,0.00,CLR,,0.00,WeatherDisplay:10.37,2013-08-27 09:43:00,
2013-08-27 05:48:00,62.2,59.6,29.92,NNW,338,0.0,0.0,91,0.00,CLR,,0.00,WeatherDisplay:10.37,2013-08-27 09:48:00,
2013-08-27 05:53:00,62.2,59.6,29.92,NNW,338,0.0,0.0,91,0.00,CLR,,0.00,WeatherDisplay:10.37,2013-08-27 09:53:00,
2013-08-27 05:58:00,62.2,59.6,29.92,North,0,0.0,0.0,91,0.00,CLR,,0.00,WeatherDisplay:10.37,2013-08-27 09:58:00,
2013-08-27 06:03:00,62.2,59.6,29.91,North,0,0.0,0.0,91,0.00,CLR,,0.00,WeatherDisplay:10.37,2013-08-27 10:03:00,
2013-08-27 06:08:00,62.2,59.6,29.91,North,0,0.0,0.0,91,0.00,CLR,,0.00,WeatherDisplay:10.37,2013-08-27 10:08:00,
2013-08-27 06:13:00,62.2,59.6,29.92,NNW,338,0.0,0.0,91,0.00,CLR,,0.00,WeatherDisplay:10.37,2013-08-27 10:13:00,
2013-08-27 06:18:00,62.2,59.6,29.92,NNW,338,0.0,0.0,91,0.00,CLR,,0.00,WeatherDisplay:10.37,2013-08-27 10:18:00,
2013-08-27 06:23:00,62.2,59.6,29.91,North,0,0.0,0.0,91,0.00,CLR,,0.00,WeatherDisplay:10.37,2013-08-27 10:23:00,
2013-08-27 06:28:00,62.2,59.6,29.91,NW,315,0.0,0.0,91,0.00,CLR,,0.00,WeatherDisplay:10.37,2013-08-27 10:28:00,
2013-08-27 06:33:00,62.2,59.6,29.91,North,0,0.0,0.0,91,0.00,CLR,,0.00,WeatherDisplay:10.37,2013-08-27 10:33:00,
2013-08-27 06:38:00,62.1,59.4,29.91,NW,315,0.0,0.0,91,0.00,CLR,,0.00,WeatherDisplay:10.37,2013-08-27 10:38:00,
2013-08-27 06:43:00,62.1,59.4,29.91,NW,315,0.0,0.0,91,0.00,CLR,,0.00,WeatherDisplay:10.37,2013-08-27 10:43:00,
2013-08-27 06:48:00,62.1,59.4,29.92,WNW,292,0.0,0.0,91,0.00,CLR,,0.00,WeatherDisplay:10.37,2013-08-27 10:48:00,
2013-08-27 06:53:00,61.9,59.2,29.91,NNW,338,0.0,0.0,91,0.00,CLR,,0.00,WeatherDisplay:10.37,2013-08-27 10:53:00,
2013-08-27 06:58:00,61.9,59.2,29.91,NNE,22,0.0,0.0,91,0.00,CLR,,0.00,WeatherDisplay:10.37,2013-08-27 10:58:00,
2013-08-27 07:03:00,61.9,59.2,29.91,NW,315,0.0,0.0,91,0.00,CLR,,0.00,WeatherDisplay:10.37,2013-08-27 11:03:00,
2013-08-27 07:08:00,61.9,59.2,29.91,NW,315,0.0,0.0,91,0.00,CLR,,0.00,WeatherDisplay:10.37,2013-08-27 11:08:00,
2013-08-27 07:13:00,61.9,59.2,29.92,NNW,338,0.0,0.0,91,0.00,CLR,,0.00,WeatherDisplay:10.37,2013-08-27 11:13:00,
2013-08-27 07:18:00,61.9,59.2,29.92,NNW,338,0.0,0.0,91,0.00,CLR,,0.00,WeatherDisplay:10.37,2013-08-27 11:18:00,
2013-08-27 07:23:00,61.9,59.2,29.92,NNW,338,0.0,0.0,91,0.00,CLR,,0.00,WeatherDisplay:10.37,2013-08-27 11:23:00,
2013-08-27 07:28:00,62.2,59.6,29.93,North,0,0.0,0.0,91,0.00,CLR,,0.00,WeatherDisplay:10.37,2013-08-27 11:28:00,
2013-08-27 07:33:00,62.2,59.6,29.93,North,0,0.0,0.0,91,0.00,CLR,,0.00,WeatherDisplay:10.37,2013-08-27 11:33:00,
2013-08-27 07:38:00,62.4,59.8,29.93,NW,315,0.0,0.0,91,0.00,CLR,,0.00,WeatherDisplay:10.37,2013-08-27 11:38:00,
2013-08-27 07:43:00,62.4,59.8,29.92,NNW,338,0.0,0.0,91,0.00,CLR,,0.00,WeatherDisplay:10.37,2013-08-27 11:43:00,
2013-08-27 07:48:00,62.4,59.8,29.93,NNW,338,0.0,0.0,91,0.00,CLR,,0.00,WeatherDisplay:10.37,2013-08-27 11:48:00,
2013-08-27 07:53:00,62.4,59.8,29.93,NNW,338,0.0,0.0,91,0.00,CLR,,0.00,WeatherDisplay:10.37,2013-08-27 11:53:00,
2013-08-27 07:58:00,63.1,60.5,29.93,NNE,22,0.0,0.0,91,0.00,CLR,,0.00,WeatherDisplay:10.37,2013-08-27 11:58:00,
2013-08-27 08:03:00,63.3,60.6,29.93,NNE,22,0.0,0.0,91,0.00,CLR,,0.00,WeatherDisplay:10.37,2013-08-27 12:03:00,
2013-08-27 08:08:00,63.7,61.0,29.93,NNE,22,0.0,0.0,91,0.00,CLR,,0.00,WeatherDisplay:10.37,2013-08-27 12:08:00,
2013-08-27 08:13:00,63.9,61.2,29.92,NNW,338,0.0,0.0,91,0.00,CLR,,0.00,WeatherDisplay:10.37,2013-08-27 12:13:00,
2013-08-27 08:18:00,64.0,61.4,29.92,SSW,202,0.0,0.0,91,0.00,CLR,,0.00,WeatherDisplay:10.37,2013-08-27 12:18:00,
2013-08-27 08:23:00,64.4,61.7,29.92,SSW,202,0.0,0.0,91,0.00,CLR,,0.00,WeatherDisplay:10.37,2013-08-27 12:23:00,
2013-08-27 08:28:00,64.8,62.1,29.92,SSW,202,0.0,0.0,91,0.00,CLR,,0.00,WeatherDisplay:10.37,2013-08-27 12:28:00,
2013-08-27 08:33:00,65.1,62.4,29.92,SSW,202,0.0,0.0,91,0.00,CLR,,0.00,WeatherDisplay:10.37,2013-08-27 12:33:00,
2013-08-27 08:38:00,65.5,62.8,29.92,SSW,202,0.0,0.0,91,0.00,CLR,,0.00,WeatherDisplay:10.37,2013-08-27 12:38:00,
2013-08-27 08:43:00,65.5,62.8,29.92,SSW,202,0.0,0.0,91,0.00,CLR,,0.00,WeatherDisplay:10.37,2013-08-27 12:43:00,
2013-08-27 08:48:00,66.4,63.7,29.92,SSW,202,0.0,0.0,91,0.00,CLR,,0.00,WeatherDisplay:10.37,2013-08-27 12:48:00,
2013-08-27 08:53:00,66.7,64.0,29.92,SSW,202,0.0,0.0,91,0.00,CLR,,0.00,WeatherDisplay:10.37,2013-08-27 12:53:00,
2013-08-27 08:58:00,66.9,64.2,29.91,SSW,202,0.0,0.0,91,0.00,CLR,,0.00,WeatherDisplay:10.37,2013-08-27 12:58:00,
2013-08-27 09:03:00,66.9,64.2,29.91,SSW,202,0.0,0.0,91,0.00,CLR,,0.00,WeatherDisplay:10.37,2013-08-27 13:03:00,
2013-08-27 09:08:00,67.1,64.4,29.92,SSW,202,0.0,0.0,91,0.00,CLR,,0.00,WeatherDisplay:10.37,2013-08-27 13:08:00,
2013-08-27 09:13:00,67.6,64.6,29.92,NNW,338,0.0,0.0,90,0.00,CLR,,0.00,WeatherDisplay:10.37,2013-08-27 13:13:00,
2013-08-27 09:18:00,67.8,64.8,29.92,NNW,338,0.0,0.0,90,0.00,CLR,,0.00,WeatherDisplay:10.37,2013-08-27 13:18:00,
2013-08-27 09:23:00,68.4,65.3,29.91,NNW,338,0.0,0.0,90,0.00,CLR,,0.00,WeatherDisplay:10.37,2013-08-27 13:23:00,
2013-08-27 09:28:00,68.7,65.3,29.92,NNW,338,0.0,0.0,89,0.00,CLR,,0.00,WeatherDisplay:10.37,2013-08-27 13:28:00,
2013-08-27 09:33:00,68.9,65.5,29.92,NNW,338,0.0,0.0,89,0.00,CLR,,0.00,WeatherDisplay:10.37,2013-08-27 13:33:00,
2013-08-27 09:38:00,69.1,65.7,29.92,NNW,338,0.0,0.0,89,0.00,CLR,,0.00,WeatherDisplay:10.37,2013-08-27 13:38:00,
2013-08-27 09:43:00,69.6,66.2,29.92,NNW,338,0.0,0.0,89,0.00,CLR,,0.00,WeatherDisplay:10.37,2013-08-27 13:43:00,
2013-08-27 09:48:00,70.0,66.3,29.92,SSW,202,0.0,0.0,88,0.00,CLR,,0.00,WeatherDisplay:10.37,2013-08-27 13:48:00,
2013-08-27 09:53:00,70.5,66.8,29.92,SSW,202,0.0,0.0,88,0.00,CLR,,0.00,WeatherDisplay:10.37,2013-08-27 13:53:00,
2013-08-27 09:58:00,70.7,67.0,29.92,SSW,202,0.0,0.0,88,0.00,CLR,,0.00,WeatherDisplay:10.37,2013-08-27 13:58:00,
2013-08-27 10:03:00,70.9,67.1,29.91,SSW,202,0.0,0.0,88,0.00,CLR,,0.00,WeatherDisplay:10.37,2013-08-27 14:03:00,
2013-08-27 10:08:00,71.2,67.2,29.91,SSW,202,0.0,0.0,87,0.00,CLR,,0.00,WeatherDisplay:10.37,2013-08-27 14:08:00,
2013-08-27 10:13:00,71.2,67.2,29.91,SSW,202,0.0,0.0,87,0.00,CLR,,0.00,WeatherDisplay:10.37,2013-08-27 14:13:00,
2013-08-27 10:18:00,71.2,67.2,29.91,SSW,202,0.0,0.0,87,0.00,CLR,,0.00,WeatherDisplay:10.37,2013-08-27 14:18:00,
2013-08-27 10:23:00,72.7,68.6,29.92,SSW,202,0.0,0.0,87,0.00,CLR,,0.00,WeatherDisplay:10.37,2013-08-27 14:23:00,
2013-08-27 10:28:00,72.7,68.6,29.92,SSW,202,0.0,0.0,87,0.00,CLR,,0.00,WeatherDisplay:10.37,2013-08-27 14:28:00,
2013-08-27 10:33:00,72.7,68.6,29.92,SSW,202,0.0,0.0,87,0.00,CLR,,0.00,WeatherDisplay:10.37,2013-08-27 14:33:00,
2013-08-27 10:38:00,73.9,69.1,29.92,North,0,0.0,0.0,85,0.00,CLR,,0.00,WeatherDisplay:10.37,2013-08-27 14:38:00,
2013-08-27 10:43:00,74.5,69.3,29.92,North,0,0.0,0.0,84,0.00,CLR,,0.00,WeatherDisplay:10.37,2013-08-27 14:43:00,
2013-08-27 10:48:00,74.8,69.7,29.92,NW,315,0.0,0.0,84,0.00,CLR,,0.00,WeatherDisplay:10.37,2013-08-27 14:48:00,
2013-08-27 10:53:00,75.4,69.5,29.92,WNW,292,0.0,0.0,82,0.00,CLR,,0.00,WeatherDisplay:10.37,2013-08-27 14:53:00,
2013-08-27 10:58:00,75.7,69.9,29.92,West,270,0.0,0.0,82,0.00,CLR,,0.00,WeatherDisplay:10.37,2013-08-27 14:58:00,
2013-08-27 11:03:00,76.1,70.2,29.92,West,270,0.0,0.0,82,0.00,CLR,,0.00,WeatherDisplay:10.37,2013-08-27 15:03:00,
2013-08-27 11:08:00,76.6,70.0,29.92,NNW,338,0.0,0.0,80,0.00,CLR,,0.00,WeatherDisplay:10.37,2013-08-27 15:08:00,
2013-08-27 11:13:00,76.8,70.2,29.92,WNW,292,0.0,0.0,80,0.00,CLR,,0.00,WeatherDisplay:10.37,2013-08-27 15:13:00,
2013-08-27 11:18:00,77.2,70.5,29.92,West,270,0.0,0.0,80,0.00,CLR,,0.00,WeatherDisplay:10.37,2013-08-27 15:18:00,
2013-08-27 11:23:00,77.7,70.7,29.91,NNW,338,0.0,0.0,79,0.00,CLR,,0.00,WeatherDisplay:10.37,2013-08-27 15:23:00,
2013-08-27 11:28:00,78.1,70.7,29.91,NNW,338,0.0,0.0,78,0.00,CLR,,0.00,WeatherDisplay:10.37,2013-08-27 15:28:00,
2013-08-27 11:33:00,78.4,70.6,29.91,NW,315,0.0,0.0,77,0.00,CLR,,0.00,WeatherDisplay:10.37,2013-08-27 15:33:00,
2013-08-27 11:38:00,78.6,70.8,29.91,NNE,22,0.0,0.0,77,0.00,CLR,,0.00,WeatherDisplay:10.37,2013-08-27 15:38:00,
2013-08-27 11:43:00,79.7,71.5,29.91,NNE,22,0.0,0.0,76,0.00,CLR,,0.00,WeatherDisplay:10.37,2013-08-27 15:43:00,
2013-08-27 11:48:00,79.9,71.2,29.91,NNW,338,0.0,0.0,75,0.00,CLR,,0.00,WeatherDisplay:10.37,2013-08-27 15:48:00,
2013-08-27 11:53:00,80.4,70.6,29.91,SSW,202,0.0,0.0,72,0.00,CLR,,0.00,WeatherDisplay:10.37,2013-08-27 15:53:00,
2013-08-27 11:58:00,80.4,70.6,29.90,WSW,248,0.0,0.0,72,0.00,CLR,,0.00,WeatherDisplay:10.37,2013-08-27 15:58:00,
2013-08-27 12:03:00,80.8,71.3,29.90,West,270,0.0,0.0,73,0.00,CLR,,0.00,WeatherDisplay:10.37,2013-08-27 16:03:00,
2013-08-27 12:08:00,81.1,71.7,29.90,North,0,0.0,0.0,73,0.00,CLR,,0.00,WeatherDisplay:10.37,2013-08-27 16:08:00,
2013-08-27 12:13:00,81.7,72.2,29.90,NE,45,0.0,0.0,73,0.00,CLR,,0.00,WeatherDisplay:10.37,2013-08-27 16:13:00,
2013-08-27 12:18:00,81.7,72.2,29.90,NE,45,0.0,0.0,73,0.00,CLR,,0.00,WeatherDisplay:10.37,2013-08-27 16:18:00,
2013-08-27 12:23:00,82.6,70.5,29.90,NE,45,0.0,0.0,67,0.00,CLR,,0.00,WeatherDisplay:10.37,2013-08-27 16:23:00,
2013-08-27 12:28:00,82.8,70.7,29.90,NE,45,0.0,0.0,67,0.00,CLR,,0.00,WeatherDisplay:10.37,2013-08-27 16:28:00,
2013-08-27 12:33:00,82.9,70.9,29.90,NE,45,0.0,0.0,67,0.00,CLR,,0.00,WeatherDisplay:10.37,2013-08-27 16:33:00,
2013-08-27 12:38:00,83.1,71.5,29.89,NNE,22,0.0,0.0,68,0.00,CLR,,0.00,WeatherDisplay:10.37,2013-08-27 16:38:00,
2013-08-27 12:43:00,83.5,70.9,29.90,NE,45,0.0,0.0,66,0.00,CLR,,0.00,WeatherDisplay:10.37,2013-08-27 16:43:00,
2013-08-27 12:48:00,83.5,70.0,29.90,NE,45,0.0,0.0,64,0.00,CLR,,0.00,WeatherDisplay:10.37,2013-08-27 16:48:00,
2013-08-27 12:53:00,83.5,70.0,29.89,ENE,68,0.0,0.0,64,0.00,CLR,,0.00,WeatherDisplay:10.37,2013-08-27 16:53:00,
2013-08-27 12:58:00,83.8,70.4,29.89,NNW,338,0.0,0.0,64,0.00,CLR,,0.00,WeatherDisplay:10.37,2013-08-27 16:58:00,
2013-08-27 13:03:00,84.0,71.0,29.89,NE,45,0.0,0.0,65,0.00,CLR,,0.00,WeatherDisplay:10.37,2013-08-27 17:03:00,
2013-08-27 13:08:00,84.0,70.5,29.89,NNE,22,0.0,0.0,64,0.00,CLR,,0.00,WeatherDisplay:10.37,2013-08-27 17:08:00,
2013-08-27 13:13:00,84.4,71.3,29.88,NNE,22,0.0,0.0,65,0.00,CLR,,0.00,WeatherDisplay:10.37,2013-08-27 17:13:00,
2013-08-27 13:18:00,84.6,71.9,29.88,NE,45,0.0,0.0,66,0.00,CLR,,0.00,WeatherDisplay:10.37,2013-08-27 17:18:00,
2013-08-27 13:23:00,84.7,71.7,29.88,ENE,68,0.0,0.0,65,0.00,CLR,,0.00,WeatherDisplay:10.37,2013-08-27 17:23:00,
2013-08-27 13:28:00,84.9,71.4,29.88,NE,45,0.0,0.0,64,0.00,CLR,,0.00,WeatherDisplay:10.37,2013-08-27 17:28:00,
2013-08-27 13:33:00,85.1,71.1,29.88,NE,45,0.0,0.0,63,0.00,CLR,,0.00,WeatherDisplay:10.37,2013-08-27 17:33:00,
2013-08-27 13:38:00,85.1,71.1,29.87,NE,45,0.0,0.0,63,0.00,CLR,,0.00,WeatherDisplay:10.37,2013-08-27 17:38:00,
2013-08-27 13:43:00,84.9,70.9,29.87,NE,45,0.0,0.0,63,0.00,CLR,,0.00,WeatherDisplay:10.37,2013-08-27 17:43:00,
2013-08-27 13:48:00,85.1,70.6,29.88,NNW,338,0.0,0.0,62,0.00,CLR,,0.00,WeatherDisplay:10.37,2013-08-27 17:48:00,
2013-08-27 13:53:00,85.3,70.3,29.88,NE,45,0.0,0.0,61,0.00,CLR,,0.00,WeatherDisplay:10.37,2013-08-27 17:53:00,
2013-08-27 13:58:00,85.6,70.6,29.89,NW,315,0.0,0.0,61,0.00,CLR,,0.00,WeatherDisplay:10.37,2013-08-27 17:58:00,
2013-08-27 14:03:00,86.2,70.7,29.88,NE,45,0.0,0.0,60,0.00,CLR,,0.00,WeatherDisplay:10.37,2013-08-27 18:03:00,
2013-08-27 14:08:00,86.4,71.8,29.88,NE,45,0.0,0.0,62,0.00,CLR,,0.00,WeatherDisplay:10.37,2013-08-27 18:08:00,
2013-08-27 14:13:00,86.4,71.8,29.88,NE,45,0.0,0.0,62,0.00,CLR,,0.00,WeatherDisplay:10.37,2013-08-27 18:13:00,
2013-08-27 14:18:00,86.2,69.7,29.88,NE,45,0.0,0.0,58,0.00,CLR,,0.00,WeatherDisplay:10.37,2013-08-27 18:18:00,
2013-08-27 14:23:00,86.2,69.7,29.88,NE,45,0.0,0.0,58,0.00,CLR,,0.00,WeatherDisplay:10.37,2013-08-27 18:23:00,
2013-08-27 14:28:00,85.8,69.8,29.87,NNE,22,0.0,0.0,59,0.00,CLR,,0.00,WeatherDisplay:10.37,2013-08-27 18:28:00,
2013-08-27 14:33:00,85.6,70.6,29.87,NE,45,0.0,0.0,61,0.00,CLR,,0.00,WeatherDisplay:10.37,2013-08-27 18:33:00,
2013-08-27 14:38:00,85.8,69.8,29.87,North,0,0.0,0.0,59,0.00,CLR,,0.00,WeatherDisplay:10.37,2013-08-27 18:38:00,
2013-08-27 14:43:00,86.2,71.2,29.87,NE,45,0.0,0.0,61,0.00,CLR,,0.00,WeatherDisplay:10.37,2013-08-27 18:43:00,
2013-08-27 14:48:00,86.2,70.7,29.87,NE,45,0.0,0.0,60,0.00,CLR,,0.00,WeatherDisplay:10.37,2013-08-27 18:48:00,
2013-08-27 14:53:00,86.4,70.8,29.87,NE,45,0.0,0.0,60,0.00,CLR,,0.00,WeatherDisplay:10.37,2013-08-27 18:53:00,
2013-08-27 14:58:00,86.2,70.7,29.86,NE,45,0.0,0.0,60,0.00,CLR,,0.00,WeatherDisplay:10.37,2013-08-27 18:58:00,
2013-08-27 15:03:00,85.8,71.3,29.86,NE,45,0.0,0.0,62,0.00,CLR,,0.00,WeatherDisplay:10.37,2013-08-27 19:03:00,
2013-08-27 15:08:00,85.8,70.8,29.86,NNE,22,0.0,0.0,61,0.00,CLR,,0.00,WeatherDisplay:10.37,2013-08-27 19:08:00,
2013-08-27 15:13:00,85.6,70.6,29.85,NE,45,0.0,0.0,61,0.00,CLR,,0.00,WeatherDisplay:10.37,2013-08-27 19:13:00,
2013-08-27 15:18:00,85.6,70.6,29.85,NE,45,0.0,0.0,61,0.00,CLR,,0.00,WeatherDisplay:10.37,2013-08-27 19:18:00,
2013-08-27 15:23:00,85.8,69.8,29.85,NE,45,0.0,0.0,59,0.00,CLR,,0.00,WeatherDisplay:10.37,2013-08-27 19:23:00,
2013-08-27 15:28:00,85.6,70.2,29.85,NE,45,0.0,0.0,60,0.00,CLR,,0.00,WeatherDisplay:10.37,2013-08-27 19:28:00,
2013-08-27 15:33:00,85.6,70.2,29.85,NNW,338,0.0,0.0,60,0.00,CLR,,0.00,WeatherDisplay:10.37,2013-08-27 19:33:00,
2013-08-27 15:38:00,85.5,71.4,29.85,NE,45,0.0,0.0,63,0.00,CLR,,0.00,WeatherDisplay:10.37,2013-08-27 19:38:00,
2013-08-27 15:43:00,85.3,71.3,29.84,NE,45,0.0,0.0,63,0.00,CLR,,0.00,WeatherDisplay:10.37,2013-08-27 19:43:00,
2013-08-27 15:48:00,85.3,70.3,29.85,NE,45,0.0,0.0,61,0.00,CLR,,0.00,WeatherDisplay:10.37,2013-08-27 19:48:00,
2013-08-27 15:53:00,84.6,70.6,29.84,NNE,22,0.0,0.0,63,0.00,CLR,,0.00,WeatherDisplay:10.37,2013-08-27 19:53:00,
2013-08-27 15:58:00,84.0,70.1,29.85,NNE,22,0.0,0.0,63,0.00,CLR,,0.00,WeatherDisplay:10.37,2013-08-27 19:58:00,
2013-08-27 16:03:00,84.0,70.5,29.85,NNE,22,0.0,0.0,64,0.00,CLR,,0.00,WeatherDisplay:10.37,2013-08-27 20:03:00,
2013-08-27 16:08:00,83.8,70.4,29.85,NE,45,0.0,0.0,64,0.00,CLR,,0.00,WeatherDisplay:10.37,2013-08-27 20:08:00,
2013-08-27 16:13:00,83.8,70.8,29.85,NE,45,0.0,0.0,65,0.00,CLR,,0.00,WeatherDisplay:10.37,2013-08-27 20:13:00,
2013-08-27 16:18:00,83.5,70.5,29.85,NE,45,0.0,0.0,65,0.00,CLR,,0.00,WeatherDisplay:10.37,2013-08-27 20:18:00,
2013-08-27 16:23:00,83.7,71.1,29.85,NE,45,0.0,0.0,66,0.00,CLR,,0.00,WeatherDisplay:10.37,2013-08-27 20:23:00,
2013-08-27 16:28:00,84.0,70.1,29.85,NE,45,0.0,0.0,63,0.00,CLR,,0.00,WeatherDisplay:10.37,2013-08-27 20:28:00,
2013-08-27 16:33:00,84.4,70.9,29.85,NE,45,0.0,0.0,64,0.00,CLR,,0.00,WeatherDisplay:10.37,2013-08-27 20:33:00,
2013-08-27 16:38:00,84.6,69.6,29.85,NE,45,0.0,0.0,61,0.00,CLR,,0.00,WeatherDisplay:10.37,2013-08-27 20:38:00,
2013-08-27 16:43:00,84.7,69.8,29.85,NE,45,0.0,0.0,61,0.00,CLR,,0.00,WeatherDisplay:10.37,2013-08-27 20:43:00,
2013-08-27 16:48:00,84.7,70.7,29.85,NE,45,0.0,0.0,63,0.00,CLR,,0.00,WeatherDisplay:10.37,2013-08-27 20:48:00,
2013-08-27 16:53:00,84.4,69.9,29.85,NE,45,0.0,0.0,62,0.00,CLR,,0.00,WeatherDisplay:10.37,2013-08-27 20:53:00,
2013-08-27 16:58:00,84.6,69.6,29.85,NE,45,0.0,0.0,61,0.00,CLR,,0.00,WeatherDisplay:10.37,2013-08-27 20:58:00,
2013-08-27 17:03:00,84.6,69.6,29.85,NE,45,0.0,0.0,61,0.00,CLR,,0.00,WeatherDisplay:10.37,2013-08-27 21:03:00,
2013-08-27 17:23:00,83.8,70.4,29.85,North,0,0.0,0.0,64,0.00,CLR,,0.00,WeatherDisplay:10.37,2013-08-27 21:23:00,
2013-08-27 17:31:00,83.5,70.5,29.85,North,0,0.0,0.0,65,0.00,CLR,,0.00,WeatherDisplay:10.37,2013-08-27 21:31:00,
2013-08-27 17:36:00,83.8,71.3,29.85,North,0,0.0,0.0,66,0.00,CLR,,0.00,WeatherDisplay:10.37,2013-08-27 21:36:00,
2013-08-27 17:43:00,83.8,70.8,29.84,North,0,0.0,0.0,65,0.00,CLR,,0.00,WeatherDisplay:10.37,2013-08-27 21:43:00,
2013-08-27 17:49:00,83.5,70.0,29.85,North,0,0.0,0.0,64,0.00,CLR,,0.00,WeatherDisplay:10.37,2013-08-27 21:49:00,
2013-08-27 17:54:00,83.5,71.4,29.84,North,0,0.0,0.0,67,0.00,CLR,,0.00,WeatherDisplay:10.37,2013-08-27 21:54:00,
2013-08-27 17:59:00,82.9,70.4,29.85,North,0,0.0,0.0,66,0.00,CLR,,0.00,WeatherDisplay:10.37,2013-08-27 21:59:00,
2013-08-27 18:04:00,82.9,70.4,29.85,North,0,0.0,0.0,66,0.00,CLR,,0.00,WeatherDisplay:10.37,2013-08-27 22:04:00,
2013-08-27 18:09:00,82.0,71.3,29.84,North,0,0.0,0.0,70,0.00,CLR,,0.00,WeatherDisplay:10.37,2013-08-27 22:09:00,
2013-08-27 18:14:00,81.7,70.9,29.84,North,0,0.0,0.0,70,0.00,CLR,,0.00,WeatherDisplay:10.37,2013-08-27 22:14:00,
2013-08-27 18:19:00,81.3,70.6,29.85,North,0,0.0,0.0,70,0.00,CLR,,0.00,WeatherDisplay:10.37,2013-08-27 22:19:00,
2013-08-27 18:24:00,81.1,70.4,29.84,North,0,0.0,0.0,70,0.00,CLR,,0.00,WeatherDisplay:10.37,2013-08-27 22:24:00,
2013-08-27 18:29:00,80.8,70.1,29.84,North,0,0.0,0.0,70,0.00,CLR,,0.00,WeatherDisplay:10.37,2013-08-27 22:29:00,
2013-08-27 18:34:00,80.4,69.3,29.84,North,0,0.0,0.0,69,0.00,CLR,,0.00,WeatherDisplay:10.37,2013-08-27 22:34:00,
2013-08-27 18:39:00,80.2,69.1,29.84,North,0,0.0,0.0,69,0.00,CLR,,0.00,WeatherDisplay:10.37,2013-08-27 22:39:00,
2013-08-27 18:44:00,80.2,69.1,29.84,North,0,0.0,0.0,69,0.00,CLR,,0.00,WeatherDisplay:10.37,2013-08-27 22:44:00,
2013-08-27 18:49:00,80.2,69.1,29.84,North,0,0.0,0.0,69,0.00,CLR,,0.00,WeatherDisplay:10.37,2013-08-27 22:49:00,
2013-08-27 18:54:00,79.7,69.9,29.84,North,0,0.0,0.0,72,0.00,CLR,,0.00,WeatherDisplay:10.37,2013-08-27 22:54:00,
2013-08-27 18:59:00,79.7,69.5,29.84,North,0,0.0,0.0,71,0.00,CLR,,0.00,WeatherDisplay:10.37,2013-08-27 22:59:00,
2013-08-27 19:04:00,79.5,70.5,29.84,North,0,0.0,0.0,74,0.00,CLR,,0.00,WeatherDisplay:10.37,2013-08-27 23:04:00,
2013-08-27 19:09:00,79.3,70.3,29.84,North,0,0.0,0.0,74,0.00,CLR,,0.00,WeatherDisplay:10.37,2013-08-27 23:09:00,
2013-08-27 19:14:00,79.3,69.5,29.84,North,0,0.0,0.0,72,0.00,CLR,,0.00,WeatherDisplay:10.37,2013-08-27 23:14:00,
2013-08-27 19:19:00,79.2,69.4,29.84,North,0,0.0,0.0,72,0.00,CLR,,0.00,WeatherDisplay:10.37,2013-08-27 23:19:00,
2013-08-27 19:24:00,79.2,69.4,29.84,North,0,0.0,0.0,72,0.00,CLR,,0.00,WeatherDisplay:10.37,2013-08-27 23:24:00,
2013-08-27 19:29:00,79.0,69.6,29.84,North,0,0.0,0.0,73,0.00,CLR,,0.00,WeatherDisplay:10.37,2013-08-27 23:29:00,
2013-08-27 19:34:00,79.0,70.0,29.85,North,0,0.0,0.0,74,0.00,CLR,,0.00,WeatherDisplay:10.37,2013-08-27 23:34:00,
2013-08-27 19:39:00,78.6,68.8,29.84,North,0,0.0,0.0,72,0.00,CLR,,0.00,WeatherDisplay:10.37,2013-08-27 23:39:00,
2013-08-27 19:44:00,78.6,68.4,29.84,North,0,0.0,0.0,71,0.00,CLR,,0.00,WeatherDisplay:10.37,2013-08-27 23:44:00,
2013-08-27 19:49:00,78.4,69.1,29.84,North,0,0.0,0.0,73,0.00,CLR,,0.00,WeatherDisplay:10.37,2013-08-27 23:49:00,
2013-08-27 19:54:00,78.4,69.1,29.84,North,0,0.0,0.0,73,0.00,CLR,,0.00,WeatherDisplay:10.37,2013-08-27 23:54:00,
2013-08-27 19:59:00,77.9,70.5,29.84,North,0,0.0,0.0,78,0.00,CLR,,0.00,WeatherDisplay:10.37,2013-08-27 23:59:00,
2013-08-27 20:04:00,77.9,70.5,29.84,North,0,0.0,0.0,78,0.00,CLR,,0.00,WeatherDisplay:10.37,2013-08-28 00:04:00,
2013-08-27 20:09:00,76.6,72.1,29.84,North,0,0.0,0.0,86,0.00,CLR,,0.00,WeatherDisplay:10.37,2013-08-28 00:09:00,
2013-08-27 20:14:00,76.3,71.8,29.84,North,0,0.0,0.0,86,0.00,CLR,,0.00,WeatherDisplay:10.37,2013-08-28 00:14:00,
2013-08-27 20:19:00,76.3,71.8,29.84,North,0,0.0,0.0,86,0.00,CLR,,0.00,WeatherDisplay:10.37,2013-08-28 00:19:00,
2013-08-27 20:24:00,75.9,71.4,29.84,North,0,0.0,0.0,86,0.00,CLR,,0.00,WeatherDisplay:10.37,2013-08-28 00:24:00,
2013-08-27 20:29:00,75.9,71.4,29.84,North,0,0.0,0.0,86,0.00,CLR,,0.00,WeatherDisplay:10.37,2013-08-28 00:29:00,
2013-08-27 20:34:00,75.9,70.7,29.84,North,0,0.0,0.0,84,0.00,CLR,,0.00,WeatherDisplay:10.37,2013-08-28 00:34:00,
2013-08-27 20:39:00,75.9,70.7,29.84,North,0,0.0,0.0,84,0.00,CLR,,0.00,WeatherDisplay:10.37,2013-08-28 00:39:00,
2013-08-27 20:44:00,75.9,70.7,29.84,North,0,0.0,0.0,84,0.00,CLR,,0.00,WeatherDisplay:10.37,2013-08-28 00:44:00,
2013-08-27 20:49:00,75.7,70.9,29.84,NW,315,0.0,0.0,85,0.00,CLR,,0.00,WeatherDisplay:10.37,2013-08-28 00:49:00,
2013-08-27 20:54:00,75.7,70.9,29.84,NW,315,0.0,0.0,85,0.00,CLR,,0.00,WeatherDisplay:10.37,2013-08-28 00:54:00,
2013-08-27 20:59:00,74.8,70.0,29.85,NW,315,0.0,0.0,85,0.00,CLR,,0.00,WeatherDisplay:10.37,2013-08-28 00:59:00,
2013-08-27 21:04:00,74.8,70.0,29.85,NW,315,0.0,0.0,85,0.00,CLR,,0.00,WeatherDisplay:10.37,2013-08-28 01:04:00,
2013-08-27 21:09:00,74.8,70.0,29.85,NW,315,0.0,0.0,85,0.00,CLR,,0.00,WeatherDisplay:10.37,2013-08-28 01:09:00,
2013-08-27 21:14:00,74.8,70.0,29.85,NW,315,0.0,0.0,85,0.00,CLR,,0.00,WeatherDisplay:10.37,2013-08-28 01:14:00,
2013-08-27 21:19:00,73.9,69.8,29.85,North,0,0.0,0.0,87,0.00,CLR,,0.00,WeatherDisplay:10.37,2013-08-28 01:19:00,
2013-08-27 21:24:00,73.9,69.8,29.85,North,0,0.0,0.0,87,0.00,CLR,,0.00,WeatherDisplay:10.37,2013-08-28 01:24:00,
2013-08-27 21:29:00,73.9,69.8,29.85,North,0,0.0,0.0,87,0.00,CLR,,0.00,WeatherDisplay:10.37,2013-08-28 01:29:00,
2013-08-27 21:34:00,73.2,69.8,29.86,North,0,0.0,0.0,89,0.00,CLR,,0.00,WeatherDisplay:10.37,2013-08-28 01:34:00,
2013-08-27 21:39:00,73.2,69.8,29.86,North,0,0.0,0.0,89,0.00,CLR,,0.00,WeatherDisplay:10.37,2013-08-28 01:39:00,
2013-08-27 21:44:00,72.7,69.2,29.85,North,0,0.0,0.0,89,0.00,CLR,,0.00,WeatherDisplay:10.37,2013-08-28 01:44:00,
2013-08-27 21:49:00,72.7,69.2,29.85,North,0,0.0,0.0,89,0.00,CLR,,0.00,WeatherDisplay:10.37,2013-08-28 01:49:00,
2013-08-27 21:54:00,72.5,69.1,29.86,North,0,0.0,0.0,89,0.00,CLR,,0.00,WeatherDisplay:10.37,2013-08-28 01:54:00,
2013-08-27 21:59:00,72.5,69.1,29.86,North,0,0.0,0.0,89,0.00,CLR,,0.00,WeatherDisplay:10.37,2013-08-28 01:59:00,
2013-08-27 22:05:00,72.5,69.1,29.85,North,0,0.0,0.0,89,0.00,CLR,,0.00,WeatherDisplay:10.37,2013-08-28 02:05:00,
2013-08-27 22:10:00,72.3,68.9,29.86,North,0,0.0,0.0,89,0.00,CLR,,0.00,WeatherDisplay:10.37,2013-08-28 02:10:00,
2013-08-27 22:15:00,72.5,69.1,29.86,North,0,0.0,0.0,89,0.00,CLR,,0.00,WeatherDisplay:10.37,2013-08-28 02:15:00,
2013-08-27 22:20:00,72.3,68.9,29.86,North,0,0.0,0.0,89,0.00,CLR,,0.00,WeatherDisplay:10.37,2013-08-28 02:20:00,
2013-08-27 22:25:00,72.3,68.9,29.87,North,0,0.0,0.0,89,0.00,CLR,,0.00,WeatherDisplay:10.37,2013-08-28 02:25:00,
2013-08-27 22:30:00,72.3,68.9,29.87,North,0,0.0,0.0,89,0.00,CLR,,0.00,WeatherDisplay:10.37,2013-08-28 02:30:00,
2013-08-27 22:35:00,72.3,68.9,29.87,North,0,0.0,0.0,89,0.00,CLR,,0.00,WeatherDisplay:10.37,2013-08-28 02:35:00,
2013-08-27 22:40:00,72.3,68.9,29.86,North,0,0.0,0.0,89,0.00,CLR,,0.00,WeatherDisplay:10.37,2013-08-28 02:40:00,
2013-08-27 22:45:00,72.3,68.9,29.86,North,0,0.0,0.0,89,0.00,CLR,,0.00,WeatherDisplay:10.37,2013-08-28 02:45:00,
2013-08-27 22:50:00,72.3,68.9,29.87,North,0,0.0,0.0,89,0.00,CLR,,0.00,WeatherDisplay:10.37,2013-08-28 02:50:00,
2013-08-27 22:55:00,72.1,68.4,29.87,North,0,0.0,0.0,88,0.00,CLR,,0.00,WeatherDisplay:10.37,2013-08-28 02:55:00,
2013-08-27 23:01:00,72.1,68.4,29.87,North,0,0.0,0.0,88,0.00,CLR,,0.00,WeatherDisplay:10.37,2013-08-28 03:01:00,
2013-08-27 23:06:00,72.0,68.5,29.88,North,0,0.0,0.0,89,0.00,CLR,,0.00,WeatherDisplay:10.37,2013-08-28 03:06:00,
2013-08-27 23:11:00,72.1,68.7,29.87,North,0,0.0,0.0,89,0.00,CLR,,0.00,WeatherDisplay:10.37,2013-08-28 03:11:00,
2013-08-27 23:16:00,72.1,68.7,29.87,North,0,0.0,0.0,89,0.00,CLR,,0.00,WeatherDisplay:10.37,2013-08-28 03:16:00,
2013-08-27 23:21:00,72.1,68.4,29.87,North,0,0.0,0.0,88,0.00,CLR,,0.00,WeatherDisplay:10.37,2013-08-28 03:21:00,
2013-08-27 23:26:00,72.1,68.4,29.87,North,0,0.0,0.0,88,0.00,CLR,,0.00,WeatherDisplay:10.37,2013-08-28 03:26:00,
2013-08-27 23:31:00,72.1,68.4,29.87,North,0,0.0,0.0,88,0.00,CLR,,0.00,WeatherDisplay:10.37,2013-08-28 03:31:00,
2013-08-27 23:36:00,71.8,68.0,29.87,North,0,0.0,0.0,88,0.00,CLR,,0.00,WeatherDisplay:10.37,2013-08-28 03:36:00,
2013-08-27 23:41:00,71.8,68.0,29.87,North,0,0.0,0.0,88,0.00,CLR,,0.00,WeatherDisplay:10.37,2013-08-28 03:41:00,
2013-08-27 23:46:00,71.8,68.0,29.87,West,270,0.0,0.0,88,0.00,CLR,,0.00,WeatherDisplay:10.37,2013-08-28 03:46:00,
2013-08-27 23:51:00,71.8,68.0,29.87,West,270,0.0,0.0,88,0.00,CLR,,0.00,WeatherDisplay:10.37,2013-08-28 03:51:00,
2013-08-27 23:56:00,71.8,68.0,29.87,West,270,0.0,0.0,88,0.00,CLR,,0.00,WeatherDisplay:10.37,2013-08-28 03:56:00,